Weather History for KEHR - February, 2013

Change the Weather History Date:

Tuesday, February 26, 2013

  Actual Average Record
Temperature  
Mean Temperature 44 °F -  
Max Temperature 50 °F 48 °F 71 °F (1981)
Min Temperature 39 °F 30 °F 7 °F (1967)
Degree Days  
Heating Degree Days 20    
Moisture  
Dew Point 32 °F    
Average Humidity 67    
Maximum Humidity 76    
Minimum Humidity 46    
Precipitation  
Precipitation 0.54 in - - ()
Sea Level Pressure  
Sea Level Pressure 29.47 in    
Wind  
Wind Speed 15 mph (South)    
Max Wind Speed 25 mph    
Max Gust Speed 31 mph    
Visibility 10 miles    
Events      
Averages and records for this station are not official NWS values.
T = Trace of Precipitation, MM = Missing Value Source: NWS Daily Summary

Daily Weather History Graph

Daily Weather History Graph

Search for Another Location

Airport or City:

Trip Planner

Search our weather history database for the weather conditions in past years. The results will help you decide how hot, cold, wet, or windy it might be!

Date:

Astronomy

Feb. 26, 2013 Rise Set
Actual Time 6:26 AM CST 5:41 PM CST
Civil Twilight 5:59 AM CST 6:08 PM CST
Nautical Twilight 5:29 AM CST 6:38 PM CST
Astronomical Twilight 4:58 AM CST 7:08 PM CST
Moon 6:55 PM CST (2/26) 6:30 AM CST (2/26)
Length of Visible Light 12h 08m
Length of Day
11h 15m
Full, 99% of the Moon is Illuminated
Feb 26
Full
Mar 4
Last Quarter
Mar 11
New
Mar 19
First Quarter
Mar 27
Full

Hourly Weather History & Observations

Time (CST) Temp. Windchill Dew Point Humidity Pressure Visibility Wind Dir Wind Speed Gust Speed Precip Events Conditions
12:15 AM 44.6 °F 36.9 °F 24.8 °F 46% 29.56 in 10.0 mi East 18.4 mph 25.3 mph N/A   Overcast
12:35 AM 44.6 °F 36.4 °F 24.8 °F 46% 29.54 in 10.0 mi East 20.7 mph 28.8 mph N/A   Overcast
12:55 AM 42.8 °F 34.3 °F 26.6 °F 53% 29.52 in 10.0 mi East 19.6 mph 27.6 mph 0.02 in   Overcast
1:15 AM 42.8 °F 34.3 °F 26.6 °F 53% 29.51 in 10.0 mi East 19.6 mph 24.2 mph N/A   Overcast
1:35 AM 42.8 °F 34.5 °F 26.6 °F 53% 29.49 in 10.0 mi East 18.4 mph 23.0 mph 0.01 in   Overcast
1:55 AM 42.8 °F 34.3 °F 28.4 °F 57% 29.48 in 10.0 mi ENE 19.6 mph 24.2 mph 0.01 in   Overcast
2:15 AM 42.8 °F 34.8 °F 28.4 °F 57% 29.48 in 10.0 mi East 17.3 mph 23.0 mph 0.01 in   Overcast
2:35 AM 41.0 °F 32.8 °F 28.4 °F 61% 29.46 in 10.0 mi ENE 16.1 mph - 0.04 in   Overcast
2:55 AM 41.0 °F 34.3 °F 28.4 °F 61% 29.47 in 10.0 mi East 11.5 mph - 0.07 in   Overcast
3:15 AM 41.0 °F 32.8 °F 28.4 °F 61% 29.45 in 10.0 mi East 16.1 mph - 0.06 in   Overcast
3:35 AM 41.0 °F 34.3 °F 28.4 °F 61% 29.47 in 7.0 mi East 11.5 mph - 0.11 in   Overcast
3:55 AM 39.2 °F 33.0 °F 30.2 °F 70% 29.46 in 10.0 mi East 9.2 mph - 0.11 in   Overcast
4:15 AM 39.2 °F 33.0 °F 30.2 °F 70% 29.47 in 10.0 mi East 9.2 mph - N/A   Overcast
4:35 AM 39.2 °F 32.0 °F 30.2 °F 70% 29.45 in 10.0 mi East 11.5 mph - 0.01 in   Overcast
4:55 AM 39.2 °F 32.5 °F 30.2 °F 70% 29.44 in 6.0 mi ENE 10.4 mph - 0.01 in   Overcast
5:15 AM 41.0 °F 34.3 °F 30.2 °F 65% 29.43 in 6.0 mi East 11.5 mph - 0.03 in   Overcast
5:35 AM 41.0 °F 33.9 °F 32.0 °F 70% 29.42 in 9.0 mi East 12.7 mph - 0.06 in   Mostly Cloudy
5:55 AM 41.0 °F 33.5 °F 32.0 °F 70% 29.40 in 9.0 mi East 13.8 mph - 0.08 in   Overcast
6:15 AM 42.8 °F 36.2 °F 33.8 °F 70% 29.40 in 9.0 mi East 12.7 mph - 0.02 in   Overcast
6:35 AM 42.8 °F 36.2 °F 33.8 °F 70% 29.40 in 7.0 mi East 12.7 mph 18.4 mph 0.03 in   Overcast
6:55 AM 42.8 °F 35.8 °F 33.8 °F 70% 29.39 in 8.0 mi East 13.8 mph 18.4 mph 0.03 in   Overcast
7:35 AM 42.8 °F 36.6 °F 33.8 °F 70% 29.39 in 5.0 mi East 11.5 mph - N/A   Overcast
7:55 AM 42.8 °F 37.0 °F 33.8 °F 70% 29.39 in 7.0 mi East 10.4 mph - 0.02 in   Overcast
8:35 AM 42.8 °F 38.6 °F 33.8 °F 70% 29.40 in 10.0 mi East 6.9 mph - 0.01 in   Overcast
8:55 AM 42.8 °F 40.1 °F 35.6 °F 76% 29.39 in 10.0 mi East 4.6 mph - 0.01 in   Overcast
9:15 AM 44.6 °F 41.4 °F 35.6 °F 71% 29.39 in 10.0 mi ESE 5.8 mph - 0.01 in   Overcast
9:35 AM 44.6 °F 40.7 °F 35.6 °F 71% 29.38 in 9.0 mi ESE 6.9 mph - 0.04 in   Overcast
9:55 AM 44.6 °F 42.2 °F 35.6 °F 71% 29.39 in 10.0 mi SE 4.6 mph - 0.06 in   Overcast
10:15 AM 46.4 °F 42.9 °F 37.4 °F 71% 29.40 in 10.0 mi South 6.9 mph - N/A   Overcast
10:35 AM 46.4 °F 41.9 °F 39.2 °F 76% 29.40 in 10.0 mi SW 9.2 mph - N/A   Overcast
10:55 AM 46.4 °F 41.1 °F 39.2 °F 76% 29.40 in 10.0 mi SW 11.5 mph - 0.01 in   Overcast
11:15 AM 46.4 °F 41.1 °F 37.4 °F 71% 29.40 in 10.0 mi SW 11.5 mph - N/A   Overcast
11:35 AM 46.4 °F 40.7 °F 37.4 °F 71% 29.39 in 10.0 mi SW 12.7 mph - N/A   Overcast
11:55 AM 50.0 °F - 39.2 °F 66% 29.39 in 10.0 mi SW 10.4 mph - N/A   Overcast
12:15 PM 48.2 °F - 39.2 °F 71% 29.38 in 10.0 mi SW 9.2 mph - N/A   Overcast
12:35 PM 48.2 °F - 39.2 °F 71% 29.38 in 9.0 mi WSW 13.8 mph - N/A   Mostly Cloudy
12:55 PM 46.4 °F 41.1 °F 37.4 °F 71% 29.38 in 10.0 mi WSW 11.5 mph - 0.06 in   Mostly Cloudy
1:15 PM 48.2 °F - 37.4 °F 66% 29.39 in 10.0 mi SW 17.3 mph - N/A   Mostly Cloudy
1:35 PM - - - N/A% 29.39 in 10.0 mi WSW 21.9 mph 26.5 mph N/A   Overcast
1:55 PM 46.4 °F 39.5 °F 35.6 °F 66% 29.41 in 10.0 mi WSW 17.3 mph 23.0 mph 0.01 in   Overcast
2:15 PM - - - N/A% 29.41 in 10.0 mi WSW 20.7 mph - N/A   Overcast
2:35 PM - - - N/A% 29.42 in 10.0 mi WSW 21.9 mph 27.6 mph N/A   Overcast
2:55 PM 46.4 °F 38.7 °F 35.6 °F 66% 29.43 in 10.0 mi SW 20.7 mph - N/A   Mostly Cloudy
3:15 PM 46.4 °F 39.2 °F 33.8 °F 62% 29.44 in 10.0 mi SW 18.4 mph 24.2 mph N/A   Overcast
3:35 PM - - - N/A% 29.45 in 10.0 mi WSW 25.3 mph 31.1 mph N/A   Overcast
3:55 PM 44.6 °F 38.1 °F 33.8 °F 66% 29.46 in 10.0 mi SW 13.8 mph - N/A   Overcast
4:15 PM 44.6 °F 38.1 °F 33.8 °F 66% 29.46 in 10.0 mi SW 13.8 mph - N/A   Mostly Cloudy
4:35 PM 44.6 °F 38.1 °F 35.6 °F 71% 29.47 in 10.0 mi SW 13.8 mph 18.4 mph N/A   Overcast
5:15 PM 44.6 °F 37.2 °F 32.0 °F 61% 29.50 in 10.0 mi SW 17.3 mph - N/A   Overcast
5:35 PM 42.8 °F 35.4 °F 32.0 °F 66% 29.50 in 10.0 mi SW 15.0 mph - N/A   Overcast
5:55 PM 42.8 °F 36.2 °F 32.0 °F 66% 29.51 in 10.0 mi SW 12.7 mph - N/A   Overcast
6:15 PM 42.8 °F 35.4 °F 33.8 °F 70% 29.52 in 10.0 mi SW 15.0 mph - N/A   Mostly Cloudy
6:35 PM 41.0 °F 33.5 °F 32.0 °F 70% 29.53 in 10.0 mi SW 13.8 mph 26.5 mph N/A   Mostly Cloudy
6:55 PM 41.0 °F 32.8 °F 30.2 °F 65% 29.54 in 10.0 mi SW 16.1 mph - 0.02 in   Overcast
7:15 PM 41.0 °F 34.7 °F 30.2 °F 65% 29.55 in 10.0 mi SW 10.4 mph - 0.01 in   Overcast
7:35 PM 39.2 °F 32.0 °F 30.2 °F 70% 29.55 in 10.0 mi SW 11.5 mph - 0.01 in   Overcast
7:55 PM 39.2 °F 30.5 °F 30.2 °F 70% 29.56 in 10.0 mi SW 16.1 mph - 0.01 in   Overcast
8:15 PM 39.2 °F 30.8 °F 30.2 °F 70% 29.57 in 10.0 mi SW 15.0 mph - 0.01 in   Overcast
8:35 PM 39.2 °F 31.6 °F 30.2 °F 70% 29.57 in 10.0 mi SW 12.7 mph 18.4 mph 0.01 in   Overcast
8:55 PM 39.2 °F 32.0 °F 30.2 °F 70% 29.58 in 10.0 mi SW 11.5 mph - 0.01 in   Overcast
9:15 PM 39.2 °F 31.6 °F 30.2 °F 70% 29.59 in 10.0 mi SW 12.7 mph - N/A   Overcast
9:35 PM 39.2 °F 32.0 °F 30.2 °F 70% 29.59 in 10.0 mi SW 11.5 mph - N/A   Overcast
9:55 PM 39.2 °F 31.6 °F 30.2 °F 70% 29.59 in 10.0 mi SW 12.7 mph 17.3 mph N/A   Overcast
10:15 PM 39.2 °F 31.2 °F 30.2 °F 70% 29.60 in 10.0 mi SW 13.8 mph - N/A   Overcast
11:15 PM 39.2 °F 31.6 °F 30.2 °F 70% 29.61 in 10.0 mi West 12.7 mph - N/A   Overcast
11:35 PM 39.2 °F 31.6 °F 30.2 °F 70% 29.62 in 10.0 mi WSW 12.7 mph 19.6 mph N/A   Overcast
11:55 PM 39.2 °F 30.2 °F 30.2 °F 70% 29.63 in 10.0 mi WSW 17.3 mph 20.7 mph N/A   Overcast